Location: Lasseubetat
(43.1667°N, 0.4500°W)
Time: 19:15:52
(UTC+00:00)

Daily predictions for brighter satellites

Satellite Brightness Start Highest point End
(mag) Time Altitude Azimuth Time Altitude Azimuth Time Altitude Azimuth
COSMOS 2428 3.4 18:17:56 10° SSE 18:22:51 31° ESE 18:27:48 10° NE
SL-16 R/B 3.8 18:20:44 10° SW 18:25:58 38° WNW 18:31:15 10° N
Cosmos 1470 Rocket 3.8 18:24:22 10° S 18:28:50 80° W 18:33:17 10° N
SL-8 Rocket 4.4 18:26:34 10° SSE 18:32:19 41° E 18:38:04 10° NNE
CENTAUR R/B 3.7 18:28:40 10° SE 18:32:25 18° ESE 18:36:32 10° ENE
SKYMED 2 4.3 18:29:03 10° N 18:33:20 60° WNW 18:37:36 10° SSW
ATLAS CENTAUR R/B 3.0 18:30:45 10° WSW 18:34:00 30° NW 18:37:19 10° NNE
Cosmos 1666 2.8 18:37:06 10° S 18:40:42 50° E 18:44:20 10° NNE
CZ-2C R/B 4.2 18:37:58 10° S 18:43:30 53° W 18:48:49 10° NNW
Cosmos 2322 3.7 18:37:55 10° SSW 18:43:36 71° ESE 18:49:18 10° NNE
Cosmos 1703 Rocket 3.5 18:40:01 10° N 18:44:22 64° E 18:48:40 10° SSE
CSL-04 Rocket 3.9 18:39:12 10° SE 18:44:29 48° ENE 18:49:45 10° N
Okean-O 2.6 18:43:11 10° SSE 18:47:35 80° ENE 18:52:03 10° N
Cosmos 1844 Rocket 3.1 18:42:32 10° NNW 18:48:04 69° WSW 18:53:35 10° SSE
BREEZE-M DEB (TANK) 3.0 18:45:50 10° SW 18:48:11 39° SE 18:50:06 15° ENE
Cosmos 1933 Rocket 3.8 18:44:54 10° SSW 18:49:14 73° W 18:53:39 10° N
Cosmos 2366 rocket 4.3 18:44:32 10° SSE 18:50:31 47° E 18:56:34 10° NNE
H-2A R/B 2.3 18:46:09 10° SSE 18:51:36 82° WSW 18:57:04 10° NNW
CSL-04 Debris 4.2 18:46:43 10° SSE 18:52:04 60° ENE 18:57:27 10° N
Cosmos 1777 Rocket 4.0 18:47:30 10° NNW 18:52:43 65° ENE 18:57:52 10° SSE
ASTEX 1 4.4 18:48:54 10° NNE 18:52:50 24° E 18:56:43 10° SE
SJ-6B 4.3 18:52:45 14° ESE 18:54:45 20° ENE 18:57:41 10° NNE
Ariane Rocket 4.2 18:55:34 14° ESE 18:58:27 22° ENE 19:02:19 10° NNE
USA 186 3.1 18:59:36 16° NE 18:59:36 16° NE 19:00:48 10° NNE
OBJECT-B 2.7 19:02:10 15° ENE 19:02:10 15° ENE 19:03:39 10° NNE
NOSS 3-2 (C) 4.2 18:57:42 10° SSE 19:02:11 26° ESE 19:07:06 10° ENE
Meteor 1-11 Rocket 3.7 18:58:51 10° S 19:04:25 59° E 19:09:54 10° NNE
Cosmos 2360 Rocket 3.7 19:02:50 10° SW 19:08:05 38° WNW 19:13:23 10° N
Okean 1-7 3.2 19:04:09 10° NNW 19:08:30 73° W 19:12:46 10° S
YAOGAN 1 3.3 19:04:18 10° S 19:08:32 56° W 19:12:48 10° NNW
FALCON 9 DEB 3.8 19:09:46 10° NW 19:12:45 35° NNE 19:13:45 27° ENE
SAR-Lupe-4 3.9 19:10:02 10° N 19:13:36 68° WNW 19:17:09 10° SSW
Cosmos 2341 Rocket 4.3 19:07:52 10° SSW 19:14:09 74° W 19:20:25 10° N
Cosmos 2237 Rocket 2.9 19:10:19 10° SSE 19:15:15 31° ESE 19:20:12 10° NE
Meteor 1-13 Rocket 4.3 19:09:56 10° N 19:15:53 82° E 19:21:41 10° SSE
Cosmos 1544 3.8 19:13:31 10° SSE 19:16:44 30° E 19:19:59 10° NNE
SJ 16-02 1.8 19:12:59 10° N 19:17:10 41° ENE 19:19:18 24° ESE
Cosmos 1727 Rocket 4.1 19:11:53 10° N 19:17:54 50° ENE 19:23:55 10° SSE
Cosmos 1536 2.7 19:15:05 10° S 19:19:02 68° E 19:22:59 10° NNE
Cosmos 2278 Rocket 2.7 19:13:49 10° NNW 19:19:11 41° ENE 19:22:11 23° ESE
DMSP B5D2-2 4.1 19:14:06 10° NNE 19:19:15 58° E 19:24:22 10° S
FALCON 9 DEB 3.4 19:17:36 10° NW 19:20:40 44° NNE 19:21:22 37° ENE
SWAS 4.3 19:16:36 10° SSW 19:20:52 75° ESE 19:25:11 10° NNE
SL-4 R/B 1.7 19:17:53 10° WNW 19:21:23 67° SW 19:22:57 29° SE
Okean 3 3.4 19:17:27 10° N 19:21:45 76° E 19:26:01 10° SSE
Cosmos 2218 Rocket 4.0 19:18:22 10° S 19:24:46 88° E 19:31:12 10° N
SeaSat 1 2.3 19:21:17 10° NNE 19:26:13 70° ESE 19:31:08 10° SSW
Abrixas rocket 1.4 19:24:22 10° WNW 19:26:45 78° NNW 19:26:45 78° NNW
Cosmos 864 Rocket 4.4 19:22:33 10° S 19:28:43 88° E 19:35:00 10° N
MetOp-A 4.1 19:23:40 10° SSE 19:28:56 64° ENE 19:34:15 10° N
Resurs 01 Rocket 3.4 19:31:41 16° NE 19:31:41 16° NE 19:33:32 10° NNE
SME Rocket 3.8 19:27:05 10° NNE 19:33:50 55° E 19:38:23 10° S
Helios 1A Rocket 3.8 19:30:25 10° S 19:34:20 48° W 19:38:16 10° NNW
Cosmos 2333 Rocket 3.1 19:30:04 10° SW 19:35:36 52° WNW 19:41:13 10° NNE
Gbstr 26 Del rocket 4.0 19:31:39 10° NW 19:36:10 44° NNE 19:38:19 30° ENE
Lacrosse 4 Rocket 3.1 19:33:18 10° WSW 19:37:24 37° NW 19:41:35 10° NNE
USA 234 3.5 19:33:09 20° ENE 19:37:28 46° SE 19:43:41 10° SSW
USA 238 DEB 3.5 19:35:14 10° SSW 19:41:42 72° ESE 19:48:31 10° NE
USA 238 3.5 19:35:21 10° SSW 19:41:49 72° ESE 19:48:37 10° NE
ARGOS 4.4 19:38:37 10° SSW 19:43:43 42° W 19:48:52 10° NNW
CZ-4 R/B 4.3 19:41:25 10° SW 19:44:02 17° W 19:46:43 10° NW
DELTA 2 R/B (1) 3.7 19:39:23 10° WSW 19:44:51 59° S 19:46:36 40° ESE
Resurs 1-3 4.2 19:45:27 38° ENE 19:45:27 38° ENE 19:49:13 10° N
IRS-1A Rocket 4.2 19:46:16 28° SE 19:49:13 64° ENE 19:54:42 10° N
FALCON 9 DEB 3.2 19:46:11 10° NW 19:48:55 63° NW 19:48:55 63° NW
Cosmos 2219 Rocket 3.3 19:46:33 10° SW 19:51:52 44° WNW 19:57:14 10° NNE
Cosmos 1238 Rocket 3.3 19:50:23 10° SSW 19:54:31 58° W 19:58:00 10° N
Cosmos 1378 3.9 19:51:16 10° NNW 19:54:52 50° W 19:57:26 18° SSW
Hubble Space Telescope 3.3 19:54:53 10° S 19:54:55 10° S 19:54:55 10° S
CREW DRAGON DEMO-1 DEB 4.5 19:52:58 10° W 19:55:13 28° NW 19:55:13 28° NW
CZ-2C R/B 3.8 19:52:01 10° N 19:57:08 44° WNW 20:02:07 10° SW
USA 305 3.5 19:54:43 10° NW 19:58:46 43° NNE 19:58:46 43° NNE
FALCON 9 DEB 3.9 19:55:43 10° NW 19:58:05 46° NW 19:58:05 46° NW
Cosmos 1980 3.5 19:54:11 10° SSW 19:59:48 77° ESE 20:05:28 10° NNE
Cosmos 1733 Rocket 2.9 19:57:26 10° S 20:01:46 90° ENE 20:06:10 10° N
COSMOS 2428 4.0 20:01:38 10° SW 20:06:58 41° WNW 20:12:20 10° NNE
NOSS 3-2 (A) 3.7 20:05:07 10° SW 20:10:39 63° NW 20:17:04 10° NNE
USA 307 3.6 20:08:28 10° NW 20:12:00 45° N 20:12:00 45° N
USA 306 3.6 20:09:42 10° NW 20:13:13 47° N 20:13:13 47° N
Cosmos 1743 3.5 20:10:41 10° SSW 20:14:27 52° W 20:18:17 10° N
Cosmos 2369 Rocket 4.2 20:15:58 10° N 20:18:00 14° NNE 20:18:00 14° NNE
Cosmos 1898 Rocket 3.4 20:14:30 10° NNW 20:19:30 71° NE 20:19:30 71° NE
NOSS 0 Rocket 4.2 20:14:06 10° SW 20:20:12 65° WNW 20:26:21 10° NNE
CENTAUR R/B 2.5 20:16:09 10° SW 20:21:58 79° NW 20:28:57 10° NE
USA 308 3.8 20:19:16 10° NW 20:22:24 43° NNW 20:22:24 43° NNW
SJ-6B 4.3 20:28:20 31° WSW 20:29:09 35° W 20:32:51 10° NNW
OBJECT-B 3.6 20:35:14 18° NW 20:35:14 18° NW 20:36:29 10° NW
Ariane Rocket 3.8 20:35:46 40° SW 20:37:04 49° W 20:42:01 10° NNW
Cosmos 990 Rocket 4.3 20:34:49 10° NNW 20:39:46 62° W 20:39:46 62° W
Cosmos 1763 Rocket 3.9 20:36:33 10° SSW 20:41:48 62° WNW 20:47:06 10° NNE
NOSS 3-2 (C) 3.9 20:47:00 10° SW 20:52:31 55° NW 20:55:55 26° NNE
SJ 16-02 3.7 20:52:19 10° NW 20:55:25 19° W 20:56:22 18° WSW
Cosmos 2237 Rocket 3.4 20:53:48 10° SW 20:59:09 41° WNW 21:04:33 10° NNE
Cosmos 1943 Rocket 3.6 20:53:56 10° NNW 20:56:58 29° N 20:56:58 29° N
Cosmos 2278 Rocket 3.7 20:58:13 10° NW 21:03:05 30° WSW 21:04:05 29° WSW
Resurs 01 Rocket 3.8 21:09:14 22° NW 21:09:14 22° NW 21:10:58 10° NNW
USA 234 3.6 21:20:31 59° NNW 21:20:33 59° NNW 21:26:57 10° WSW
